Regional Weather Roundup
Issued by NWS

Home | Current Version | Previous Version | Graphics & Text | Print | Product List | Glossary On
Versions: 1 2 3 4 5 6 7 8 9 10 11 12 13 14 15 16 17 18 19 20 21 22 23 24 25 26 27 28 29 30 31 32 33 34 35 36 37 38 39 40 41 42 43 44 45 46 47 48 49 50
000
ASUS43 KOAX 211002
RWRNE

WEATHER ROUNDUP FOR NEBRASKA
NATIONAL WEATHER SERVICE OMAHA NE
500 AM CDT SUN SEP 21 2014

NOTES: SATELLITE DATA IS BEING USED TO AUGMENT CLOUD COVER ABOVE
       12000 FEET.
       "FAIR" INDICATES FEW OR NO CLOUDS BELOW 12,000 FEET WITH NO
       SIGNIFICANT WEATHER AND/OR OBSTRUCTIONS TO VISIBILITY.

  * THESE STATIONS DO NOT REPORT WEATHER SUCH AS RAIN...SNOW OR FOG.

NEZ001>004-019>022-054>056-211100-
NEBRASKA PANHANDLE

CITY           SKY/WX    TMP DP  RH WIND       PRES   REMARKS
SCOTTSBLUFF    MOCLDY    51  42  71 N3        30.35R
ALLIANCE       CLEAR     41  38  89 W7        30.34R
CHADRON        CLEAR     40  37  89 SW5       30.34R
KIMBALL        CLOUDY    55  41  58 CALM      30.35S
SIDNEY         CLOUDY    53  45  74 CALM      30.35S
$$

NEZ057>060-069>072-079>082-211100-
SOUTHWEST NEBRASKA

CITY           SKY/WX    TMP DP  RH WIND       PRES   REMARKS
NORTH PLATTE   CLEAR     43  41  93 NW3       30.28R
IMPERIAL       PTCLDY    53  44  71 NW5       30.29R
LEXINGTON      CLEAR     46  44  92 NW6       30.24R
MCCOOK         CLEAR     49  45  86 SW3       30.25R
OGALLALA       MOCLDY    52  49  89 CALM      30.30R
$$

NEZ005>010-023>029-035>040-094-211100-
NORTH CENTRAL NEBRASKA

CITY           SKY/WX    TMP DP  RH WIND       PRES   REMARKS
VALENTINE      CLEAR     46  39  76 NW10      30.27R
AINSWORTH      CLEAR     46  39  77 W7        30.25S
BROKEN BOW     CLEAR     51  40  65 N7        30.23R
O`NEILL        CLEAR     51  43  73 NW10      30.21R
ORD            CLEAR     46  42  86 N5        30.21R
THEDFORD       CLEAR     46  40  81 NW5       30.28S
$$

NEZ041-046>049-061>064-073>077-083>087-211100-
SOUTH CENTRAL NEBRASKA

CITY           SKY/WX    TMP DP  RH WIND       PRES   REMARKS
GRAND ISLAND   CLEAR     51  45  79 W5        30.20R
AURORA         CLEAR     49  46  88 W6        30.19R
HASTINGS       CLEAR     54  46  74 NW9       30.20R
HEBRON         CLEAR     53  49  87 W3        30.17R
HOLDREGE       CLEAR     50  45  83 CALM      30.22R
KEARNEY *      CLEAR     52  43  71 W7        30.22R
YORK           CLEAR     50  48  93 W7        30.17R
$$

NEZ011>018-030>034-042>045-211100-
NORTHEAST NEBRASKA

CITY           SKY/WX    TMP DP  RH WIND       PRES   REMARKS
NORFOLK        CLEAR     51  45  79 NW8       30.15R
ALBION         CLEAR     47  42  81 NW6       30.18S
BLAIR          CLEAR     56  49  76 W8        30.10R
COLUMBUS *     CLEAR     50  45  81 W6        30.17R
FREMONT        CLEAR     52  49  87 W7        30.12S
TEKAMAH        CLEAR     54  49  83 W8        30.10R
WAYNE          CLEAR     52  46  79 W8        30.14R
$$

NEZ050>053-065>068-078-088>093-211100-
SOUTHEAST NEBRASKA

CITY           SKY/WX    TMP DP  RH WIND       PRES   REMARKS
LINCOLN        CLEAR     53  48  83 CALM      30.15R
OMAHA EPPLEY   CLEAR     56  49  77 NW5       30.10R
BEATRICE       CLEAR     52  51  95 CALM      30.14R
FALLS CITY     CLEAR     57  55  93 NW6       30.09S
NEBRASKA CITY    N/A     56  49  75 W7        30.11S
PLATTSMOUTH    CLEAR     55  50  83 W6        30.11R
$$

NEZ044-045-051>053-067-211100-
OMAHA AREA

CITY           SKY/WX    TMP DP  RH WIND       PRES   REMARKS
OMAHA EPPLEY   CLEAR     56  49  77 NW5       30.10R
BLAIR          CLEAR     56  49  76 W8        30.10R
FREMONT        CLEAR     52  49  87 W7        30.12S
MILLARD        CLEAR     58  51  77 NW5       30.10S
OFFUTT AFB     CLEAR     54  53  99 W6        30.10R
PLATTSMOUTH    CLEAR     55  50  83 W6        30.11R
WAHOO          FAIR      55  49  80 W6        30.12S
$$



USA.gov is the U.S. government's official web portal to all federal, state and local government web resources and services.